Miscellaneous Local Product
Issued by NWS North Platte, NE

Home | Current Version | Previous Version | Text Only | Print | Product List | Glossary On
Versions: 1 2 3 4 5 6 7 8 9 10 11 12 13 14 15 16 17 18 19 20 21 22 23 24 25 26 27 28 29 30 31 32 33 34 35 36 37 38 39 40 41 42 43 44 45 46 47 48 49 50
000
AXUS43 KLBF 201310
MISLBF


WESTERN AND NORTH CENTRAL NEBRASKA HOURLY WEATHER ROUNDUP
NATIONAL WEATHER SERVICE NORTH PLATTE NE
800 AM CDT SUN APR 20 2014

***STATIONS NOT REPORTING VARIABLES SUCH AS SKY/WEATHER OR
PRESSURE ARE PROVIDED BY THE NEBRASKA DEPARTMENT OF
ROADS...RAWS...AND APRS NETWORKS...AND ARE NOT UNDER
NATIONAL WEATHER SERVICE QUALITY CONTROL***

...OBSERVATIONS IN AND NEAR THE EASTERN PANHANDLE OF NEBRASKA...

CITY           SKY/WX    TMP DP  RH WIND       PRES   REMARKS
PINE RIDGE     CLEAR     50  41  71 SW10      29.94S
CHADRON        CLEAR     48  40  73 SW7       29.94R
ALLIANCE       CLEAR     42  38  85 S9        29.98R
SIDNEY         CLEAR     41  36  82 W5        30.02R
WHITECLAY        N/A     47  38  71 S9          N/A
CRESCENT LAKE    N/A     44  42  92 SE5         N/A
LISCO            N/A     46  38  74 E8          N/A
BIG SPRINGS      N/A     37  35  92 CALM        N/A
LEWELLEN         N/A     37  36  93 CALM        N/A
$$

...OBSERVATIONS IN SOUTHWEST NEBRASKA AND FAR NORTHEAST COLORADO...

CITY           SKY/WX    TMP DP  RH WIND       PRES   REMARKS
WRAY           FAIR     N/A N/A N/A W5        30.01S
HOLYOKE        FAIR      43  39  87 N5        30.03R
IMPERIAL       PTSUNNY   44  40  85 N6        30.01S
OGALLALA       SUNNY     38  35  87 CALM      30.03R
NORTH PLATTE   MOSUNNY   41  38  89 CALM      30.00S
MCCOOK         CLOUDY    50  46  86 CALM      29.99R
LEXINGTON      MOSUNNY   48  43  84 NW9       29.99F
PAXTON           N/A     38  34  87 CALM        N/A
SUTHERLAND       N/A     37  34  92 W3          N/A
MEDICINE CREEK   N/A     47  44  90 CALM        N/A
GOTHENBURG       N/A     42  39  90 CALM        N/A
CALLAWAY         N/A     43  37  79 CALM        N/A
$$

...OBSERVATIONS IN NORTH CENTRAL NEBRASKA...

CITY           SKY/WX    TMP DP  RH WIND       PRES   REMARKS
VALENTINE      SUNNY     39  28  64 NW5       30.00S
THEDFORD       SUNNY     43  37  82 CALM      30.01F
AINSWORTH      SUNNY     44  33  65 CALM      30.01R
O`NEILL        SUNNY     44  33  64 CALM      30.00R
ORD            PTSUNNY   48  35  60 NW5       29.98R
BROKEN BOW     SUNNY     49  36  61 N9        29.99S
BROWNLEE         N/A     53  28  39 CALM        N/A
SPRINGVIEW       N/A     36  29  75 CALM        N/A
DUNNING          N/A     44  37  78 CALM        N/A
BREWSTER         N/A     44  36  74 CALM        N/A
ROSE             N/A     52  35  52 N3          N/A
NEWPORT          N/A     43  36  75 CALM        N/A
COMSTOCK         N/A     49  38  65 CALM        N/A
CHAMBERS         N/A     50  33  51 N3          N/A
EWING            N/A     53  36  53 NE3         N/A
$$

...SOME WEATHER OBSERVATIONS FROM AROUND THE REGION...

CITY           SKY/WX    TMP DP  RH WIND       PRES   REMARKS
DENVER         PTCLDY    43  38  82 S7        30.05R
LARAMIE        CLEAR     35  31  85 S7        30.12R WCI  29
CHEYENNE       CLEAR     44  35  70 W8        30.06R
SCOTTSBLUFF    CLEAR     43  36  76 E5        29.99S
RAPID CITY     CLEAR     42  30  62 SE3       29.91S
PIERRE         MOSUNNY   41  31  67 NE6       29.96S
WINNER         FAIR      50  23  34 SE8       29.98F
SIOUX FALLS    MOSUNNY   50  40  68 NE5       30.00R
OMAHA          PTSUNNY   63  48  58 SE10      29.98S
GRAND ISLAND   MOSUNNY   54  47  77 W6        29.98S
KANSAS CITY    MOSUNNY   63  48  58 S14       30.09S
WICHITA        PTSUNNY   61  51  70 S14       30.07R
HAYS           CLOUDY    61  50  67 S8        30.01R
LIBERAL        MOSUNNY   52  46  82 S10       30.03R
GOODLAND       PTSUNNY   44  44 100 CALM      30.00S FOG
$$



USA.gov is the U.S. government's official web portal to all federal, state and local government web resources and services.